Wahoo, NE

2:52 PM CDT on July 26, 2017 (GMT -0500)
Wahoo Municipal

Weather History for KAHQ - October, 2012

Change the Weather History Date:

Friday, October 5, 2012

  Actual Average Record
Temperature  
Mean Temperature 44 °F -  
Max Temperature 52 °F 71 °F 91 °F (1963)
Min Temperature 35 °F 44 °F 28 °F (1988)
Degree Days  
Heating Degree Days 22    
Moisture  
Dew Point 23 °F    
Average Humidity 44    
Maximum Humidity 61    
Minimum Humidity 27    
Precipitation  
Precipitation 0.00 in - - ()
Sea Level Pressure  
Sea Level Pressure 30.28 in    
Wind  
Wind Speed 10 mph (NW)    
Max Wind Speed 15 mph    
Max Gust Speed 21 mph    
Visibility 10 miles    
Events      
Averages and records for this station are not official NWS values.
T = Trace of Precipitation, MM = Missing Value Source: NWS Daily Summary

Daily Weather History Graph

Daily Weather History Graph

Search for Another Location

Airport or City:

Trip Planner

Search our weather history database for the weather conditions in past years. The results will help you decide how hot, cold, wet, or windy it might be!

Date:

Astronomy

Oct. 05, 2012 Rise Set
Actual Time 7:27 AM CDT 7:00 PM CDT
Civil Twilight 7:00 AM CDT 7:28 PM CDT
Nautical Twilight 6:28 AM CDT 8:00 PM CDT
Astronomical Twilight 5:56 AM CDT 8:32 PM CDT
Moon 10:22 PM CDT (10/5) 12:39 PM CDT (10/5)
Length of Visible Light 12h 27m
Length of Day
11h 32m
Waning Gibbous, 74% of the Moon is Illuminated
Oct 5
Waning Gibbous
Oct 8
Last Quarter
Oct 15
New
Oct 21
First Quarter
Oct 29
Full

Hourly Weather History & Observations

Time (CDT) Temp. Windchill Dew Point Humidity Pressure Visibility Wind Dir Wind Speed Gust Speed Precip Events Conditions
3:55 PM 51.6 °F - 23.0 °F 33% 30.26 in - North 10.4 mph - N/A   Unknown
4:15 PM 52.7 °F - 21.7 °F 30% 30.26 in 10.0 mi North 12.7 mph 20.7 mph N/A   Clear
4:35 PM 52.5 °F - 21.0 °F 29% 30.26 in 10.0 mi NW 13.8 mph 18.4 mph N/A   Clear
4:55 PM 52.2 °F - 20.3 °F 29% 30.26 in 10.0 mi NW 11.5 mph 17.3 mph N/A   Clear
5:15 PM 52.2 °F - 19.8 °F 28% 30.26 in 10.0 mi NW 10.4 mph - N/A   Clear
5:35 PM 51.8 °F - 18.7 °F 27% 30.26 in 10.0 mi NNW 15.0 mph 18.4 mph N/A   Clear
5:55 PM 50.9 °F - 19.0 °F 28% 30.26 in 10.0 mi NNW 11.5 mph - N/A   Clear
6:15 PM 50.2 °F - 19.8 °F 30% 30.26 in 10.0 mi NW 11.5 mph - N/A   Clear
6:35 PM 48.6 °F - 21.0 °F 34% 30.27 in 10.0 mi WNW 5.8 mph - N/A   Clear
6:55 PM 46.8 °F - 22.5 °F 38% 30.27 in 10.0 mi NW 6.9 mph - N/A   Clear
7:15 PM 43.9 °F 39.9 °F 23.4 °F 44% 30.28 in 10.0 mi WNW 6.9 mph - N/A   Clear
7:35 PM 42.6 °F 39.0 °F 23.4 °F 47% 30.28 in 10.0 mi WNW 5.8 mph - N/A   Clear
7:55 PM 42.1 °F 38.4 °F 23.9 °F 49% 30.28 in 10.0 mi WNW 5.8 mph - N/A   Clear
8:15 PM 40.6 °F 36.7 °F 24.4 °F 53% 30.28 in 10.0 mi WNW 5.8 mph - N/A   Clear
8:35 PM 40.8 °F 36.9 °F 24.3 °F 52% 30.28 in 10.0 mi WNW 5.8 mph - N/A   Clear
8:55 PM 40.1 °F 36.1 °F 24.4 °F 54% 30.28 in 10.0 mi WNW 5.8 mph - N/A   Clear
9:15 PM 40.1 °F 36.1 °F 24.6 °F 54% 30.29 in 10.0 mi NW 5.8 mph - N/A   Clear
9:35 PM 35.4 °F 29.7 °F 23.2 °F 61% 30.29 in 10.0 mi NW 6.9 mph - N/A   Clear
9:55 PM 37.6 °F 32.3 °F 24.6 °F 60% 30.30 in 10.0 mi NW 6.9 mph - N/A   Clear
10:35 PM 38.7 °F 32.9 °F 24.8 °F 58% 30.30 in 10.0 mi NW 8.1 mph - N/A   Clear
10:55 PM 37.6 °F 31.0 °F 24.4 °F 59% 30.31 in 10.0 mi NW 9.2 mph - N/A   Clear
11:15 PM 37.6 °F 31.0 °F 24.8 °F 60% 30.32 in 10.0 mi NW 9.2 mph - N/A   Scattered Clouds
11:55 PM 37.9 °F 32.7 °F 24.8 °F 59% 30.32 in 10.0 mi NW 6.9 mph - N/A   Mostly Cloudy